ABS-4 (MOBISAT-1)

Last updated on Thu Jul 03 2025 00:02:44 GMT+0000 (Coordinated Universal Time)

1 28184U 04007A 25183.36450662 .00000043 00000+0 00000+0 0 9990 2 28184 5.1537 76.2921 0005098 31.4285 5.1318 1.00273621 48831
UTC large
Height (km)
Speed (km/s)
/
Latitude / Longitude
Inclination (degrees)
Orbital Period (minutes)
Azimuth
Elevation
Range (km)
Doppler Factor

Next 0 passes for location: London (51.5072 / 0.1276)

Sorry there are no passes over London.